This is the latest recevied weather packets stored in our database for station/object E20YUC-1. If no packets are shown the sender has not sent any weather packets the latest 10 day(s).
| Time | Temp. | Humidity | Pressure | Rain* | Wind** | Luminosity | Snow |
|---|---|---|---|---|---|---|---|
| 1787561415 | 2.78° C | 54% | 993.5 hPa | 0 mm | 2.24 m/s, 0° | - | - |
| 1787561177 | 35° C | 54% | 993.5 hPa | 0 mm | 3.13 m/s, 0° | - | - |
| 1787561029 | 2.78° C | 54% | 993.6 hPa | 0 mm | 7.15 m/s, 0° | - | - |
| 1787561006 | 35° C | 54% | 993.6 hPa | 0 mm | 5.36 m/s, 0° | - | - |
| 1787560934 | 2.78° C | 54% | 993.7 hPa | 0 mm | 7.6 m/s, 0° | - | - |
| 1787560919 | 2.78° C | 54% | 993.7 hPa | 0 mm | 5.36 m/s, 0° | - | - |
| 1787560779 | 35° C | 54% | 993.6 hPa | 0 mm | 2.24 m/s, 0° | - | - |
| 1787560477 | 35° C | 54% | 993.7 hPa | 0 mm | 4.02 m/s, 0° | - | - |
| 1787560177 | 35° C | 54% | 993.6 hPa | 0 mm | 6.71 m/s, 0° | - | - |
| 1787559577 | 35° C | 54% | 993.8 hPa | 0 mm | 4.02 m/s, 0° | - | - |
| 1787559279 | 35° C | 54% | 993.7 hPa | 0 mm | 2.24 m/s, 0° | - | - |
| 1787558677 | 35° C | 55% | 993.8 hPa | 0 mm | 4.02 m/s, 0° | - | - |
| 1787558077 | 35° C | 55% | 994 hPa | 0 mm | 5.36 m/s, 0° | - | - |
| 1787557779 | 35° C | 55% | 993.8 hPa | 0 mm | 5.36 m/s, 0° | - | - |
| 1787557477 | 35° C | 56% | 994 hPa | 0 mm | 0 m/s | - | - |
| 1787556877 | 35° C | 56% | 994.1 hPa | 0 mm | 4.92 m/s, 0° | - | - |
| 1787556576 | 35° C | 56% | 994.2 hPa | 0 mm | 4.02 m/s, 0° | - | - |
| 1787556278 | 35° C | 57% | 993.9 hPa | 0 mm | 1.79 m/s, 0° | - | - |
| 1787555976 | 35° C | 57% | 994.1 hPa | 0 mm | 1.79 m/s, 0° | - | - |
| 1787555676 | 35° C | 57% | 994.2 hPa | 0 mm | 3.58 m/s, 0° | - | - |
| 1787555076 | 34.44° C | 58% | 994.1 hPa | 0 mm | 2.68 m/s, 0° | - | - |
| 1787554778 | 34.44° C | 57% | 994.3 hPa | 0 mm | 1.79 m/s, 0° | - | - |
| 1787554476 | 34.44° C | 58% | 994.4 hPa | 0 mm | 4.02 m/s, 0° | - | - |
| 1787553876 | 34.44° C | 57% | 994.6 hPa | 0 mm | 2.24 m/s, 0° | - | - |
| 1787553577 | 34.44° C | 57% | 994.8 hPa | 0 mm | 6.26 m/s, 0° | - | - |
* Rain latest hour (hover to see other rain measurements)
** Current wind speed in m/s (hover to see current wind gust speed)